Weather History for KCQC - April, 2013

Change the Weather History Date:

Monday, April 22, 2013

  Actual Average (KSAF) Record (KSAF)
Temperature  
Mean Temperature 56 °F -  
Max Temperature 73 °F 0 °F 81 °F (2009)
Min Temperature 39 °F - 27 °F (2008)
Degree Days  
Heating Degree Days 9    
Growing Degree Days 6 (Base 50)    
Moisture  
Dew Point 13 °F    
Average Humidity 23    
Maximum Humidity 70    
Minimum Humidity 7    
Precipitation  
Precipitation 0.00 in - - ()
Sea Level Pressure  
Sea Level Pressure 29.81 in    
Wind  
Wind Speed 18 mph (West)    
Max Wind Speed 31 mph    
Max Gust Speed 44 mph    
Visibility 9 miles    
Events      
Averages and records for this station are not official NWS values.
T = Trace of Precipitation, MM = Missing Value Source: NWS Daily Summary

Daily Weather History Graph

Daily Weather History Graph

Search for Another Location

Airport or City:

Trip Planner

Search our weather history database for the weather conditions in past years. The results will help you decide how hot, cold, wet, or windy it might be!

Date:

Astronomy

Apr. 22, 2013 Rise Set
Actual Time 6:21 AM MDT 7:41 PM MDT
Civil Twilight 5:55 AM MDT 8:07 PM MDT
Nautical Twilight 5:23 AM MDT 8:39 PM MDT
Astronomical Twilight 4:50 AM MDT 9:12 PM MDT
Moon 4:39 PM MDT (4/22) 4:09 AM MDT (4/22)
Length of Visible Light 14h 12m
Length of Day
13h 19m
Waxing Gibbous, 88% of the Moon is Illuminated
Apr 22
Waxing Gibbous
Apr 25
Full
May 2
Last Quarter
May 9
New
May 17
First Quarter

Hourly Weather History & Observations

Time (MDT) Temp. Windchill Dew Point Humidity Pressure Visibility Wind Dir Wind Speed Gust Speed Precip Events Conditions
12:53 AM 42.1 °F 36.1 °F 9.0 °F 26% 29.91 in 10.0 mi West 10.4 mph - N/A   Clear
1:53 AM 43.0 °F 37.2 °F 10.0 °F 26% 29.88 in 10.0 mi WNW 10.4 mph - N/A   Clear
2:53 AM 39.0 °F 31.0 °F 10.0 °F 30% 29.87 in 10.0 mi West 13.8 mph - N/A   Clear
3:53 AM 41.0 °F 33.1 °F 10.9 °F 29% 29.86 in 10.0 mi West 15.0 mph - N/A   Clear
4:53 AM 44.1 °F 36.2 °F 12.0 °F 27% 29.85 in 10.0 mi West 18.4 mph - N/A   Clear
5:53 AM 46.0 °F 38.3 °F 12.0 °F 25% 29.83 in 10.0 mi West 20.7 mph - N/A   Clear
6:53 AM 46.0 °F 38.5 °F 12.9 °F 26% 29.85 in 10.0 mi West 19.6 mph - N/A   Clear
7:53 AM 52.0 °F - 12.9 °F 21% 29.86 in 10.0 mi West 24.2 mph 32.2 mph N/A   Clear
8:53 AM 57.0 °F - 12.9 °F 18% 29.88 in 10.0 mi West 20.7 mph 31.1 mph N/A   Clear
9:53 AM 62.1 °F - 12.9 °F 15% 29.86 in 10.0 mi West 21.9 mph 33.4 mph N/A   Clear
11:53 AM 69.1 °F - 10.9 °F 11% 29.84 in 10.0 mi West 27.6 mph 40.3 mph N/A   Clear
12:53 PM 71.1 °F - 10.9 °F 10% 29.80 in 10.0 mi West 26.5 mph 35.7 mph N/A   Clear
1:53 PM 73.0 °F - 10.0 °F 9% 29.76 in 10.0 mi West 25.3 mph 43.7 mph N/A   Clear
2:53 PM 73.0 °F - 10.0 °F 9% 29.75 in 10.0 mi West 28.8 mph 43.7 mph N/A   Clear
3:53 PM 73.9 °F - 10.0 °F 9% 29.70 in 10.0 mi West 27.6 mph 40.3 mph N/A   Clear
4:53 PM 73.0 °F - 8.1 °F 8% 29.68 in 10.0 mi West 24.2 mph 41.4 mph N/A   Clear
5:53 PM 73.0 °F - 5.0 °F 7% 29.65 in 10.0 mi West 31.1 mph 42.6 mph N/A   Clear
6:53 PM 70.0 °F - 6.1 °F 8% 29.68 in 10.0 mi West 21.9 mph 27.6 mph N/A   Clear
7:53 PM 64.9 °F - 3.9 °F 9% 29.68 in 10.0 mi West 19.6 mph - N/A   Clear
8:53 PM 57.0 °F - 6.1 °F 13% 29.71 in 10.0 mi West 12.7 mph - N/A   Clear
9:53 PM 55.0 °F - 6.1 °F 14% 29.71 in 10.0 mi West 11.5 mph - N/A   Clear
10:37 PM 48.2 °F - 28.4 °F 46% 29.99 in 5.0 mi East 24.2 mph 31.1 mph N/A   Haze
10:53 PM 46.9 °F - 30.0 °F 52% 29.78 in 5.0 mi East 21.9 mph 29.9 mph N/A   Haze
11:45 PM 42.8 °F 34.0 °F 32.0 °F 66% 30.01 in 7.0 mi East 20.7 mph 25.3 mph N/A   Scattered Clouds
11:53 PM 41.0 °F 33.5 °F 32.0 °F 70% 29.81 in 8.0 mi East 13.8 mph 26.5 mph N/A   Partly Cloudy